Вернуться в каталог

CZ-6A DEB

АктивенPO
NORAD 60817·DEBRIS·🇨🇳 China

Запущен Aug 6, 2024 с Taiyuan Satellite Launch Center

Loading…

Ближайшие Пролёты (ближайшие 24 часа)

TLE

СвежийSource: Space-Track

Эпоха: Sep 14, 2026, 12:06 UTC

1 60817U 24140GU  26257.50438293  .00000673  00000-0  34188-3 0  9992
2 60817  89.1111 275.9280 0078720 287.5162  71.7433 14.13352007107473

Отслеживайте CZ-6A DEB в реальном времени с AllMySat

Download on the App Store